CAPE
0 0 0 0 0 0 0 0 0 0 0 6 144 256 197 199 242 269 247 261 289 287 280 298 269 194 129 67 43 21 4 0 37 141 209 320 354 365 398 642 798 1021 1070 1130
9 0 0 0 0 0 0 0 0 9 0 68 269 205 181 182 180 220 262 191 186 226 186 147 211 187 140 88 65 30 46 48 41 26 60 116 159 172 190 246 334 403 453 533
14 0 0 0 0 0 0 22 35 31 100 328 178 291 179 122 98 115 102 113 159 121 71 67 115 84 76 84 43 53 83 67 18 4 0 3 44 66 48 44 68 80 119 217
15 1 14 0 0 0 19 236 248 199 134 240 224 218 64 19 29 25 18 19 15 0 0 0 0 0 0 0 0 0 0 0 2 2 0 0 11 25 22 15 6 7 132 0
1 15 1 0 0 0 0 57 247 220 186 106 42 2 2 4 14 0 1 0 1 2 2 1 0 0 0 0 0 0 0 0 0 2 1 1 1 0 0 0 0 40 0 0
17 15 15 0 0 0 0 78 294 223 151 73 66 132 5 0 0 1 1 1 2 3 3 0 0 0 0 0 0 0 0 0 0 0 0 0 0 0 0 0 3 3 1 0
5 0 9 0 0 0 34 15 232 280 72 100 147 55 0 0 2 4 2 0 0 0 0 0 0 0 0 0 0 0 0 0 0 0 0 0 0 0 0 0 0 0 0 0
0 0 2 2 2 0 0 0 88 64 2 0 0 0 0 0 3 0 0 0 0 0 0 0 0 0 0 0 0 0 0 0 0 0 0 0 0 0 0 0 0 0 0 0
2 10 0 0 0 0 0 0 10 9 0 0 0 0 0 0 0 1 0 0 0 0 0 0 0 0 0 0 0 0 0 0 0 0 0 0 0 0 0 0 0 0 0 0
7 0 0 0 0 0 9 4 0 0 0 0 0 0 0 0 0 0 0 0 0 0 0 0 0 0 0 0 0 0 0 0 0 0 0 0 0 0 0 0 0 0 0 0
0 0 0 0 0 0 33 47 8 0 0 0 0 0 0 0 0 0 0 0 0 0 0 0 0 0 0 0 0 0 0 0 0 0 0 0 0 0 0 0 0 0 0 0
0 0 0 0 0 0 12 51 40 11 1 0 0 0 0 0 0 0 0 0 0 0 0 0 0 0 0 0 0 0 0 0 0 0 0 0 0 0 0 0 0 0 0 0
0 0 0 0 0 0 0 0 0 2 0 0 0 9 0 3 0 0 0 0 0 0 0 0 0 0 0 0 0 0 0 0 0 0 0 0 0 0 0 0 0 0 0 0
0 0 0 0 0 0 0 0 0 0 0 0 0 0 0 0 0 0 0 0 0 0 0 0 0 0 0 0 0 0 0 0 0 0 0 0 0 0 0 0 0 0 0 0
0 0 0 0 0 0 0 0 0 0 0 0 0 0 0 0 0 0 0 0 0 0 0 0 0 0 0 0 0 0 0 0 0 0 0 0 0 0 0 0 0 0 0 0
0 0 0 0 0 0 0 0 0 0 0 0 0 0 0 0 0 0 0 0 0 0 0 0 0 0 0 0 0 0 0 0 0 0 0 0 0 0 0 0 0 0 0 0
0 0 0 0 0 0 0 0 0 0 0 0 0 0 0 0 0 0 0 0 0 0 0 0 0 0 0 0 0 0 0 0 0 0 0 0 0 0 0 0 0 0 0 0
0 0 0 0 0 0 0 0 0 0 0 0 0 0 0 0 2 1 4 1 0 0 0 0 0 0 0 0 0 0 0 0 0 0 0 0 0 0 0 0 0 0 0 0
0 0 0 0 0 0 0 0 0 0 0 0 0 0 0 0 0 1 10 0 0 0 0 0 0 0 0 0 0 0 0 0 0 0 0 0 0 0 0 0 0 0 0 0
0 0 0 0 0 0 0 0 0 0 0 0 0 0 0 0 0 0 0 0 2 1 0 0 0 0 0 0 0 0 0 0 0 0 0 0 0 0 0 0 0 0 0 0
0 0 0 0 0 0 0 0 0 0 0 0 0 0 0 0 0 0 0 0 0 0 0 0 0 0 0 0 0 0 0 0 0 0 0 0 0 0 0 0 0 0 0 0
0 0 0 0 0 0 0 0 0 0 0 0 0 0 0 0 0 3 7 9 24 8 0 0 0 0 0 0 0 1 0 0 0 0 0 0 0 0 0 0 0 0 0 0
0 0 0 0 0 0 0 0 0 0 0 0 0 0 0 0 1 0 0 13 56 78 25 7 0 0 0 0 0 0 10 0 0 0 0 0 0 0 0 0 0 0 0 0
0 0 0 0 0 0 0 0 0 0 0 0 0 0 0 0 0 3 9 4 0 0 1 42 47 0 0 5 2 0 0 6 4 0 0 0 0 0 0 0 0 0 0 0
0 0 0 0 0 0 0 0 0 0 0 0 0 0 0 0 2 0 6 8 9 5 1 1 1 10 4 6 4 2 2 0 0 1 7 15 8 5 1 0 0 0 0 0
0 0 0 0 0 0 0 0 0 0 0 0 0 0 0 0 0 0 8 3 8 4 10 22 9 14 41 51 39 11 3 2 0 0 0 0 15 28 18 10 5 0 0 0
0 0 0 0 0 0 0 0 0 0 0 0 0 0 0 0 0 0 0 19 6 8 2 1 1 0 5 78 100 24 7 2 1 1 2 0 10 49 45 17 6 0 0 0
CIN
0 0 0 0 0 0 0 0 0 0 0 -46 -253 -283 -294 -271 -225 -207 -188 -168 -137 -89 -49 -26 -16 -16 -18 -14 -33 -65 -95 -8 -49 -53 -57 -42 -42 -68 -72 -60 -50 -41 -37 -31
-43 0 0 0 0 0 0 0 0 -67 0 -211 -285 -276 -284 -278 -271 -222 -162 -168 -156 -103 -72 -51 -28 -5 -1 -22 -59 -38 -26 -56 -51 -54 -42 -49 -57 -89 -101 -99 -85 -73 -69 -66
-21 0 0 -1 0 0 0 -39 -156 -44 -103 -239 -333 -263 -278 -304 -314 -270 -235 -211 -175 -160 -158 -118 -71 -44 -25 -30 -25 -25 -36 -34 -42 -50 -5 -70 -106 -117 -156 -150 -147 -118 -109 -87
-30 -7 -10 0 0 0 -161 -113 -145 -199 -280 -240 -245 -242 -287 -319 -347 -346 -351 -344 -361 0 0 0 0 0 0 0 0 0 0 0 -5 0 0 0 -125 -162 -185 -221 -238 -140 -51 0
-2 -29 -2 0 0 0 0 -137 -140 -174 -218 -247 -323 -33 0 -69 -198 0 0 0 0 0 0 0 0 0 0 0 0 0 0 0 0 0 0 0 0 -3 0 0 0 -30 0 0
-43 -12 -7 0 0 0 0 -68 -116 -157 -225 -306 -304 -167 -66 0 0 0 0 0 0 0 0 0 0 0 0 0 0 0 0 0 0 0 0 0 0 0 0 0 0 0 0 0
-22 0 -30 0 0 0 -88 -41 -80 -95 -254 -221 -184 -149 0 0 0 0 0 0 0 0 0 0 0 0 0 0 0 0 0 0 0 0 0 0 0 0 0 0 0 0 0 0
0 0 -11 -103 -33 0 0 0 -126 -186 -132 0 0 0 0 0 0 0 0 0 0 0 0 0 0 0 0 0 0 0 0 0 0 0 0 0 0 0 0 0 0 0 0 0
-60 -64 -14 0 0 0 0 0 -187 -199 0 0 0 0 0 0 0 0 0 0 0 0 0 0 0 0 0 0 0 0 0 0 0 0 0 0 0 0 0 0 0 0 0 0
-83 0 0 0 0 -10 -175 -178 0 0 0 0 0 0 0 0 0 0 0 0 0 0 0 0 0 0 0 0 0 0 0 0 0 0 0 0 0 0 0 0 0 0 0 0
-79 0 0 0 0 0 -131 -146 -150 0 -17 0 0 0 0 0 0 0 0 0 0 0 0 0 0 0 0 0 0 0 0 0 0 0 0 0 0 0 0 0 0 0 0 0
-1 0 0 0 0 0 -127 -90 -89 -98 -102 0 0 0 0 0 0 0 0 0 0 0 0 0 0 0 0 0 0 0 0 0 0 0 0 0 0 0 0 0 0 0 0 0
0 0 0 0 0 0 0 -6 -1 -122 0 0 0 -53 0 -60 -74 0 0 0 0 0 0 0 0 0 0 0 0 0 0 0 0 0 0 0 0 0 0 0 0 0 0 0
0 0 0 0 0 0 0 0 0 0 0 0 0 0 0 0 0 0 0 0 0 0 0 0 0 0 0 0 0 0 0 0 0 0 0 0 0 0 0 0 0 0 0 0
0 0 0 0 0 0 0 0 0 0 0 0 0 0 0 0 0 0 0 0 0 0 0 0 0 0 0 0 0 0 0 0 0 0 0 0 0 0 0 0 0 0 0 0
0 0 0 0 0 0 0 0 0 0 0 0 0 0 0 0 0 0 0 0 0 0 0 0 0 0 0 0 0 0 0 0 0 0 0 0 0 0 0 0 0 0 0 0
0 0 0 0 0 0 0 0 0 0 0 0 0 0 -5 0 -144 -5 0 0 0 0 0 0 0 0 0 0 0 0 0 0 0 0 0 0 0 0 0 0 0 0 0 0
0 0 0 0 0 0 0 0 0 0 0 0 0 0 0 0 -66 -35 -94 -82 0 0 0 0 0 0 0 0 0 0 0 0 0 0 0 0 0 0 0 0 0 0 0 0
0 0 0 0 0 0 0 0 0 0 0 0 0 0 0 0 0 -22 -107 0 0 0 0 0 0 0 0 0 0 0 0 0 0 0 0 0 0 0 0 0 0 0 0 0
0 0 0 0 0 0 0 0 0 0 0 0 0 0 0 0 0 0 0 -13 -90 -56 0 0 0 0 0 0 0 0 0 0 0 0 0 0 0 0 0 0 0 0 0 0
0 0 0 0 0 0 0 0 0 0 0 0 0 0 0 0 0 0 0 0 -9 0 0 0 0 0 0 0 0 0 0 0 0 0 0 0 0 0 0 0 0 0 0 0
0 0 0 0 0 0 0 0 0 0 0 0 0 0 0 0 0 -14 -36 -49 -63 -96 -49 0 0 0 0 0 0 -2 0 0 0 0 0 0 0 0 0 0 0 0 0 0
0 0 0 0 0 0 0 0 0 0 0 0 0 0 0 0 0 0 0 -3 -8 -9 -31 -50 0 0 0 0 0 0 -2 -1 0 0 0 0 0 0 0 0 0 0 0 0
0 0 0 0 0 0 0 0 0 0 0 0 0 0 0 0 0 0 0 0 0 0 0 -22 -10 0 0 -25 0 0 0 -3 -6 0 0 0 0 0 0 0 0 0 0 0
0 0 0 0 0 0 0 0 0 0 0 0 0 0 0 0 0 0 0 -4 -1 -2 -1 0 -1 -11 -10 -1 -12 0 0 0 0 -7 -45 -48 -55 -50 -9 -5 0 0 0 0
0 0 0 0 0 0 0 0 0 0 0 0 0 0 0 0 0 -1 -4 -6 -7 -1 -5 0 -1 0 -3 0 -4 -13 -1 -8 0 -11 0 -35 -73 -56 -55 -69 -65 0 0 0
0 0 0 0 0 0 0 0 0 0 0 0 0 0 0 0 0 0 0 -7 -5 -3 -8 0 0 0 0 0 0 -3 -15 0 0 0 -3 -12 -49 -43 -56 -71 -73 0 0 0
Wind_Speed
23 22 23 25 27 28 32 33 35 34 29 25 19 16 14 12 13 13 15 12 12 10 9 7 4 5 8 10 9 16 18 19 17 17 14 14 15 14 14 14 14 14 15 16
25 23 24 28 26 28 28 32 35 31 30 23 13 13 13 12 11 12 10 9 11 13 14 14 12 7 6 3 2 5 11 10 12 13 11 10 9 10 12 12 13 15 15 16
30 25 26 32 29 28 28 29 30 32 27 17 17 14 13 13 11 11 12 10 9 8 9 9 8 7 6 3 5 2 2 5 9 13 7 8 8 9 11 12 13 14 15 16
24 24 35 24 22 23 28 26 28 29 25 20 18 16 15 14 15 14 13 11 9 6 3 6 3 1 2 2 1 4 5 7 7 3 8 9 12 14 16 13 16 15 15 15
23 25 23 24 22 25 27 27 24 25 19 14 12 12 17 16 15 14 11 9 8 6 2 3 2 2 2 0 2 3 4 7 10 8 9 12 15 17 17 18 19 14 12 14
18 24 27 20 23 26 24 30 22 21 18 14 12 22 21 12 10 10 9 7 5 4 2 1 2 2 2 2 3 3 6 9 10 9 9 9 9 10 13 13 13 14 9 12
19 21 21 20 26 21 29 26 23 20 18 17 20 21 10 8 8 7 6 5 3 3 3 3 2 2 3 3 5 6 7 8 9 9 9 10 10 11 10 10 13 12 9 9
17 19 22 23 21 22 23 23 21 17 18 18 13 6 5 5 5 4 3 2 3 3 5 6 6 6 6 6 7 7 8 8 9 10 10 10 10 11 11 10 11 11 11 13
16 16 19 20 20 24 21 23 18 17 15 13 10 8 5 6 6 7 5 4 4 4 4 7 8 10 9 9 9 9 10 10 11 10 11 11 11 12 12 13 13 13 14 14
12 14 16 17 18 18 20 20 18 12 12 11 10 9 5 5 4 5 6 6 4 5 7 8 10 10 10 11 12 11 11 12 12 12 12 13 14 15 16 18 18 17 17 18
15 14 14 15 16 16 15 12 11 12 7 7 6 8 7 7 5 7 7 8 8 9 9 11 11 12 12 13 13 13 14 14 15 14 14 14 16 18 18 19 18 18 19 21
16 14 14 15 17 16 13 11 10 9 9 7 7 5 4 6 7 8 9 10 11 12 13 13 14 15 16 15 15 14 14 15 16 15 15 16 16 16 17 16 16 17 18 18
15 13 13 13 15 15 14 13 13 13 11 13 10 5 10 15 17 14 20 18 18 18 17 18 19 18 19 16 16 16 17 17 17 18 18 17 18 18 20 17 16 17 18 19
14 14 14 15 16 17 16 15 14 13 11 11 12 16 17 16 18 15 16 16 21 22 21 23 24 22 18 18 18 17 17 17 17 17 16 15 16 17 18 18 18 19 18 19
14 15 14 15 17 18 18 18 18 17 16 14 11 13 17 19 18 18 18 17 18 20 20 21 22 22 20 20 19 17 16 16 15 15 15 15 15 15 16 17 17 18 18 18
12 14 16 17 17 17 18 19 20 20 21 20 18 17 17 17 17 15 15 17 21 24 22 21 21 19 17 16 17 17 16 14 13 14 13 14 14 14 15 16 17 18 19 21
11 14 16 17 17 17 16 16 17 18 20 20 22 22 22 22 22 22 20 19 19 21 20 18 19 17 16 15 15 15 14 13 13 14 14 14 14 14 15 15 17 18 19 20
11 11 12 12 13 15 15 16 18 19 20 21 21 19 20 21 23 21 22 21 21 23 22 21 19 18 17 17 17 17 16 16 15 15 14 14 14 14 15 16 17 18 19 20
12 11 10 9 8 8 10 13 16 18 20 21 22 23 22 22 24 26 25 23 24 25 25 21 21 20 19 19 18 19 18 18 18 17 16 15 15 16 16 17 18 19 19 20
9 8 7 6 6 5 7 11 14 16 18 20 21 21 21 21 21 21 20 24 27 28 25 23 22 23 22 20 18 20 21 20 20 19 18 17 17 17 17 19 20 21 21 20
8 8 7 8 9 10 10 12 14 16 18 19 20 21 22 23 23 23 23 24 25 24 24 23 22 23 22 23 21 22 21 21 21 21 20 20 19 20 20 19 20 21 22 21
8 8 9 9 9 9 11 13 14 16 17 19 20 21 22 22 23 23 21 23 26 23 23 23 23 23 23 20 22 23 22 22 22 21 20 20 20 21 21 21 21 21 22 22
7 8 9 9 8 8 10 13 15 15 16 18 19 20 21 22 22 23 24 22 24 24 25 25 24 23 23 22 23 24 26 25 24 21 21 20 19 19 19 20 21 21 22 22
8 8 8 9 9 9 11 12 14 15 15 16 17 19 21 22 23 22 22 21 21 21 19 27 26 24 22 23 23 25 29 28 26 22 21 19 18 19 20 20 20 21 22 23
8 9 9 9 10 10 10 11 13 14 14 15 16 19 21 22 22 26 26 25 21 17 18 20 23 22 21 22 24 27 30 28 29 26 26 22 22 20 19 21 22 23 24 24
7 8 9 10 10 10 10 10 11 13 14 15 16 17 19 21 21 23 26 28 28 25 23 20 17 16 18 20 22 26 28 29 29 28 29 23 23 22 22 22 21 23 25 23
7 8 10 10 10 9 9 9 10 12 13 14 15 15 15 16 18 20 22 25 25 24 25 26 23 23 20 18 18 23 23 28 32 29 27 25 24 24 23 20 19 21 23 24
Wind_Direction
264 262 261 259 257 259 253 254 253 256 261 265 260 259 264 267 263 262 262 263 260 258 261 261 227 222 262 279 250 267 281 269 277 281 282 281 279 280 285 289 297 303 306 305
262 262 261 257 263 263 260 256 256 260 259 267 261 259 258 259 260 260 271 270 268 265 266 267 266 250 259 247 287 267 275 286 280 283 289 285 293 288 289 296 301 302 306 308
259 265 263 256 258 264 262 261 258 255 264 254 252 253 250 252 256 260 265 269 274 281 280 281 278 269 255 248 280 21 315 306 295 273 301 285 299 303 296 301 308 310 309 309
265 265 253 261 269 267 266 266 263 264 267 259 253 251 253 255 256 260 265 273 278 293 334 293 321 320 267 244 26 63 46 33 26 3 292 295 289 289 292 306 299 308 310 312
267 261 270 263 268 267 266 263 272 265 263 258 250 248 258 258 260 262 268 274 279 292 329 308 341 21 78 46 335 8 5 350 332 334 321 307 283 284 299 302 301 313 308 307
282 265 260 269 275 278 270 260 278 268 257 249 240 252 258 262 261 262 264 267 281 289 339 341 315 325 62 33 351 348 343 341 347 345 339 344 332 333 323 324 328 316 309 302
284 279 280 278 281 280 256 263 281 268 258 252 257 270 248 251 255 263 259 252 262 267 275 295 303 325 321 338 322 324 332 326 328 341 346 344 343 340 352 6 19 22 20 354
297 284 277 293 278 276 270 279 282 272 260 260 269 242 235 238 245 247 239 252 257 249 263 272 285 288 295 301 310 319 313 322 328 340 346 343 347 352 356 0 10 13 5 355
299 292 289 291 287 279 283 273 283 277 268 262 255 240 233 248 251 253 250 234 260 256 262 277 288 286 288 291 296 301 307 314 321 336 339 332 334 330 328 335 340 340 339 338
315 309 307 305 305 303 291 276 271 286 270 263 248 248 252 264 251 242 242 250 255 266 273 282 290 299 300 295 293 299 309 306 309 318 321 322 324 322 314 312 315 319 319 319
309 310 314 316 317 306 320 307 282 268 285 270 261 261 253 251 272 255 255 257 261 271 280 289 296 299 298 292 295 297 299 302 302 308 312 318 316 315 316 319 321 317 317 314
309 317 318 317 305 310 311 313 309 298 288 280 269 255 300 268 249 267 268 270 270 279 283 292 293 295 291 292 294 296 300 301 301 304 304 307 309 316 328 333 336 337 331 321
315 322 324 333 329 328 330 305 312 300 296 270 267 270 278 266 251 260 256 265 272 276 284 284 287 289 287 294 295 296 296 297 302 302 301 302 300 300 300 320 334 330 329 327
321 323 321 319 315 314 311 317 330 327 321 313 280 265 269 276 269 274 276 280 273 276 280 279 279 285 295 295 293 295 298 299 302 304 306 307 307 306 303 307 309 313 325 325
321 324 325 321 315 312 312 308 303 307 309 311 314 293 285 280 281 279 279 282 285 288 293 293 291 291 292 291 293 296 298 301 303 304 306 307 308 308 308 310 311 313 316 320
345 334 328 326 328 326 319 311 306 302 298 299 298 296 294 293 291 289 288 287 286 286 291 293 295 298 298 297 295 295 299 299 300 300 301 304 307 309 310 311 313 314 315 316
14 341 334 330 337 339 338 335 328 318 313 310 299 295 293 292 290 287 287 286 288 291 293 294 296 298 295 293 292 293 293 291 295 296 297 301 303 306 310 313 314 315 315 317
96 55 42 24 10 357 350 342 336 330 325 319 315 311 300 292 288 287 288 288 286 287 289 290 290 290 288 286 284 285 284 285 287 290 293 296 300 304 307 310 312 314 314 317
126 123 118 105 75 55 31 2 347 337 330 327 323 316 310 304 296 289 288 287 286 288 288 287 286 285 284 281 278 280 279 279 280 282 285 290 294 299 302 306 308 311 313 314
120 110 90 77 55 51 25 3 352 346 341 334 329 324 319 316 310 305 296 287 285 288 287 289 283 279 280 278 271 276 274 275 275 276 279 283 287 291 297 300 303 306 309 312
123 103 79 47 23 9 2 355 352 347 340 337 334 331 326 319 315 312 306 299 297 293 285 283 279 275 273 276 270 272 273 272 272 272 274 276 283 287 293 297 301 305 308 311
87 71 54 42 43 28 6 356 350 347 343 340 337 334 331 327 325 321 316 308 306 301 292 285 280 277 272 267 269 267 268 269 269 270 273 276 280 284 288 293 299 304 307 310
65 50 45 51 51 46 21 359 348 348 345 342 344 345 341 338 338 330 323 322 314 305 296 288 283 278 272 270 270 264 264 264 265 266 270 274 278 284 290 296 300 303 307 311
62 50 46 44 41 34 13 10 356 356 356 356 359 358 357 356 353 351 341 333 324 316 309 294 288 281 277 275 270 267 261 263 265 265 266 269 276 282 288 293 299 303 306 309
51 45 44 42 33 32 32 32 19 16 20 14 8 6 7 6 5 357 354 351 350 341 322 306 294 288 284 277 274 269 267 266 258 264 263 267 273 281 288 291 295 300 305 309
59 56 48 42 43 58 57 49 34 21 17 14 10 13 16 15 16 13 7 5 360 350 340 335 323 306 295 287 282 276 271 266 261 261 261 264 270 277 284 291 297 302 306 310
57 58 47 41 62 64 64 54 37 27 20 14 10 18 22 19 14 9 5 4 3 4 1 357 352 336 322 305 296 285 280 272 263 262 259 257 269 276 282 294 304 306 309 309